Olathe, KS

7:13 AM CDT on September 22, 2017 (GMT -0500)
Johnson County Executive

Weather History for KOJC - February, 2014

Change the Weather History Date:

Friday, February 21, 2014

  Actual Average Record
Temperature  
Mean Temperature 43 °F 37 °F  
Max Temperature 57 °F 46 °F 72 °F (1991)
Min Temperature 28 °F 27 °F -4 °F (1939)
Degree Days  
Heating Degree Days 22 28  
Month to date heating degree days 839 656  
Since 1 July heating degree days 4226 3704  
Cooling Degree Days 0 0  
Month to date cooling degree days 0 0  
Year to date cooling degree days 0 0  
Moisture  
Dew Point 19 °F    
Average Humidity 49    
Maximum Humidity 75    
Minimum Humidity 22    
Precipitation  
Precipitation 0.00 in 0.06 in 0.68 in (2013)
Month to date precipitation 0.46 1.15  
Year to date precipitation 0.49 2.27  
Sea Level Pressure  
Sea Level Pressure 29.89 in    
Wind  
Wind Speed 10 mph (WSW)    
Max Wind Speed 25 mph    
Max Gust Speed 38 mph    
Visibility 10 miles    
Events      
T = Trace of Precipitation, MM = Missing Value Source: NWS Daily Summary

Daily Weather History Graph

Daily Weather History Graph

Search for Another Location

Airport or City:

Trip Planner

Search our weather history database for the weather conditions in past years. The results will help you decide how hot, cold, wet, or windy it might be!

Date:

Astronomy

Feb. 21, 2014 Rise Set
Actual Time 7:02 AM CST 6:03 PM CST
Civil Twilight 6:35 AM CST 6:30 PM CST
Nautical Twilight 6:04 AM CST 7:01 PM CST
Astronomical Twilight 5:33 AM CST 7:32 PM CST
Moon No Moon Rise 10:31 AM CST (2/21)
Length of Visible Light 11h 54m
Length of Day
11h 00m
Waning Gibbous, 60% of the Moon is Illuminated
Feb 21
Waning Gibbous
Feb 22
Last Quarter
Mar 1
New
Mar 8
First Quarter
Mar 16
Full

Hourly Weather History & Observations

Time (CST) Temp. Windchill Dew Point Humidity Pressure Visibility Wind Dir Wind Speed Gust Speed Precip Events Conditions
12:53 AM 34.0 °F 24.6 °F 14.0 °F 44% 29.86 in 10.0 mi WNW 13.8 mph 25.3 mph N/A   Clear
1:53 AM 32.0 °F 23.6 °F 14.0 °F 48% 29.89 in 10.0 mi West 10.4 mph 19.6 mph N/A   Clear
2:53 AM 30.9 °F 22.8 °F 15.1 °F 52% 29.91 in 10.0 mi West 9.2 mph - N/A   Clear
3:53 AM 28.9 °F 21.9 °F 15.1 °F 56% 29.91 in 10.0 mi WSW 6.9 mph - N/A   Clear
4:53 AM 28.0 °F 21.7 °F 19.9 °F 72% 29.92 in 10.0 mi WSW 5.8 mph - N/A   Clear
5:53 AM 28.9 °F 21.1 °F 21.0 °F 72% 29.94 in 10.0 mi WSW 8.1 mph - N/A   Clear
6:53 AM 28.0 °F 21.7 °F 19.9 °F 72% 29.94 in 10.0 mi WSW 5.8 mph - N/A   Clear
7:53 AM 28.9 °F 25.2 °F 19.9 °F 69% 29.94 in 10.0 mi SW 3.5 mph - N/A   Clear
8:53 AM 34.0 °F 26.6 °F 21.9 °F 61% 29.94 in 10.0 mi SSW 9.2 mph - N/A   Clear
9:53 AM 39.9 °F 33.4 °F 21.0 °F 47% 29.93 in 10.0 mi SW 10.4 mph - N/A   Clear
10:53 AM 45.0 °F 39.7 °F 21.9 °F 40% 29.91 in 10.0 mi SW 10.4 mph - N/A   Clear
11:53 AM 48.0 °F - 21.9 °F 36% 29.88 in 10.0 mi SW 16.1 mph 23.0 mph N/A   Clear
12:53 PM 52.0 °F - 19.9 °F 28% 29.83 in 10.0 mi SW 20.7 mph 31.1 mph N/A   Clear
1:53 PM 55.0 °F - 18.0 °F 23% 29.81 in 10.0 mi WSW 21.9 mph 34.5 mph N/A   Clear
2:53 PM 55.9 °F - 18.0 °F 23% 29.79 in 10.0 mi WSW 24.2 mph 32.2 mph N/A   Clear
3:53 PM 57.0 °F - 19.0 °F 23% 29.81 in 10.0 mi West 19.6 mph 31.1 mph N/A   Clear
4:53 PM 55.9 °F - 19.0 °F 24% 29.81 in 10.0 mi West 12.7 mph 25.3 mph N/A   Clear
5:53 PM 52.0 °F - 19.9 °F 28% 29.84 in 10.0 mi West 8.1 mph - N/A   Clear
6:53 PM 50.0 °F - 19.9 °F 31% 29.87 in 10.0 mi WNW 8.1 mph - N/A   Clear
7:53 PM 44.1 °F 42.5 °F 21.0 °F 40% 29.90 in 10.0 mi West 3.5 mph - N/A   Clear
8:53 PM 37.9 °F 35.5 °F 21.0 °F 51% 29.92 in 10.0 mi SW 3.5 mph - N/A   Clear
9:53 PM 37.9 °F - 21.0 °F 51% 29.93 in 10.0 mi Calm Calm - N/A   Clear
10:53 PM 36.0 °F 32.1 °F 21.0 °F 55% 29.92 in 10.0 mi South 4.6 mph - N/A   Clear
11:53 PM 39.0 °F 35.7 °F 21.9 °F 50% 29.92 in 10.0 mi SW 4.6 mph - N/A   Clear